This is the latest recevied weather packets stored in our database for station/object KK7MLS-13. If no packets are shown the sender has not sent any weather packets the latest 10 day(s).
| Time | Temp. | Humidity | Pressure | Rain* | Wind** | Luminosity | Snow |
|---|---|---|---|---|---|---|---|
| 1777068207 | 22.78° C | 25% | 1015.7 hPa | 0 mm | - | 609 W/m² | - |
| 1777067903 | 22.78° C | 27% | 1015.7 hPa | 0 mm | - | 613 W/m² | - |
| 1777067602 | 22.22° C | 28% | 1015.7 hPa | 0 mm | - | 619 W/m² | - |
| 1777067301 | 21.67° C | 28% | 1016 hPa | 0 mm | - | 633 W/m² | - |
| 1777066996 | 21.67° C | 27% | 1015.9 hPa | 0 mm | - | 639 W/m² | - |
| 1777066692 | 21.67° C | 30% | 1015.9 hPa | 0 mm | - | 647 W/m² | - |
| 1777066389 | 21.67° C | 27% | 1016.3 hPa | 0 mm | - | 654 W/m² | - |
| 1777066084 | 21.11° C | 31% | 1016 hPa | 0 mm | - | 662 W/m² | - |
| 1777065783 | 21.67° C | 28% | 1016.1 hPa | 0 mm | - | 668 W/m² | - |
| 1777065479 | 21.67° C | 30% | 1016.4 hPa | 0 mm | - | 677 W/m² | - |
| 1777065178 | 21.67° C | 29% | 1016.3 hPa | 0 mm | - | 681 W/m² | - |
| 1777064876 | 21.67° C | 26% | 1016.4 hPa | 0 mm | - | 689 W/m² | - |
| 1777064573 | 21.11° C | 37% | 1016.3 hPa | 0 mm | - | 693 W/m² | - |
| 1777064269 | 21.11° C | 32% | 1016.4 hPa | 0 mm | - | 695 W/m² | - |
| 1777063970 | 20.56° C | 31% | 1016.3 hPa | 0 mm | - | 703 W/m² | - |
| 1777063669 | 20° C | 30% | 1016.4 hPa | 0 mm | - | 704 W/m² | - |
| 1777063366 | 20.56° C | 27% | 1016.5 hPa | 0 mm | - | 708 W/m² | - |
| 1777063063 | 21.11° C | 31% | 1016.6 hPa | 0 mm | - | 707 W/m² | - |
| 1777062760 | 20.56° C | 28% | 1016.6 hPa | 0 mm | - | 710 W/m² | - |
| 1777062457 | 20.56° C | 30% | 1016.8 hPa | 0 mm | - | 716 W/m² | - |
| 1777062154 | 20.56° C | 28% | 1016.6 hPa | 0 mm | - | 720 W/m² | - |
| 1777061851 | 20° C | 29% | 1016.6 hPa | 0 mm | - | 720 W/m² | - |
| 1777061546 | 20° C | 31% | 1016.8 hPa | 0 mm | - | 722 W/m² | - |
| 1777061244 | 20° C | 35% | 1016.9 hPa | 0 mm | - | 725 W/m² | - |
| 1777060938 | 20° C | 29% | 1017 hPa | 0 mm | - | 724 W/m² | - |
* Rain latest hour (hover to see other rain measurements)
** Current wind speed in m/s (hover to see current wind gust speed)